Weather - Helsinki Query any day in the database

Current weather  

Weather data for a selected day (2006-01-01 -2020-10-31)
Enter date:     <-     scroll days         ->
day curves
Low temperature°C +3.023:50
High temperature°C +10.015:50
Low wind chill°C -1.105:20
Average temperature°C +6.5 
High wind speed (10 min) m/s 15.613:20
Low pressurehPa 990.013:20
High pressurehPa 1005.000:20
Low R.H% 3115:50
High R.H% 9307:20
High precipitation (1h)mm 0.704:50
Total precipitation of the daymm 1.1 
Day weather data as a table
Date Time Temp
°C
Chill
°C
Pressure
hPA
Wind
m/s
Hum
%
Precip
mm
2015-04-23 23:50:00 3.0  -0.4  997.0 3.6 55 -
2015-04-23 23:20:00 3.0  -0.4  997.0 3.6 55 -
2015-04-23 22:50:00 3.0  0.3  997.0 2.7 55 -
2015-04-23 22:20:00 4.0  1.2  997.0 3.1 51 -
2015-04-23 21:50:00 4.0  0.6  997.0 4.0 48 -
2015-04-23 21:20:00 6.0  2.0  997.0 6.3 41 -
2015-04-23 20:50:00 6.0  1.6  997.0 7.6 41 -
2015-04-23 20:20:00 7.0  2.8  996.0 8.0 39 -
2015-04-23 19:50:00 7.0  2.1  996.0 10.3 36 -
2015-04-23 19:20:00 8.0  3.3  995.0 11.2 33 -
2015-04-23 18:50:00 8.0  3.3  995.0 11.2 33 -
2015-04-23 18:20:00 9.0  4.4  994.0 12.5 34 -
2015-04-23 17:50:00 9.0  4.3  994.0 13.0 31 -
2015-04-23 17:20:00 9.0  4.6  994.0 11.2 31 -
2015-04-23 16:50:00 9.0  4.0  993.0 14.8 31 -
2015-04-23 16:20:00 9.0  4.2  993.0 13.4 34 -
2015-04-23 15:50:00 10.0  6.1  992.0 10.7 31 -
2015-04-23 15:20:00 9.0  4.0  992.0 14.8 34 -
2015-04-23 14:50:00 9.0  4.1  992.0 13.9 34 -
2015-04-23 14:20:00 9.0  4.3  991.0 13.0 36 -
2015-04-23 13:50:00 9.0  4.1  991.0 13.9 34 -
2015-04-23 13:20:00 10.0  5.2  990.0 15.6 37 -
2015-04-23 12:50:00 9.0  4.1  990.0 14.3 36 -
2015-04-23 12:20:00 9.0  4.1  990.0 13.9 36 -
2015-04-23 10:50:00 8.0  3.3  990.0 11.2 45 -
2015-04-23 10:20:00 8.0  2.8  990.0 13.4 45 -
2015-04-23 09:50:00 8.0  2.9  990.0 13.0 49 -
2015-04-23 09:20:00 7.0  2.1  990.0 10.7 56 -
2015-04-23 08:50:00 7.0  1.6  990.0 13.0 56 -
2015-04-23 08:20:00 7.0  2.9  990.0 7.6 70 -
2015-04-23 07:50:00 5.0  1.6  990.0 4.5 86 -
2015-04-23 07:20:00 4.0  0.6  991.0 4.0 93 -
2015-04-23 06:50:00 4.0  -0.1  991.0 5.4 93 -
2015-04-23 06:20:00 4.0  -0.5  992.0 6.3 86 -
2015-04-23 05:50:00 4.0  -0.9  993.0 7.2 86 -
2015-04-23 05:20:00 4.0  -1.1  994.0 8.0 80 -
2015-04-23 04:50:00 5.0  -0.3  995.0 9.4 70 0.7
2015-04-23 04:20:00 5.0  0.4  996.0 7.2 65 -
2015-04-23 03:50:00 6.0  2.8  998.0 4.5 60 0.3
2015-04-23 03:20:00 5.0  1.6  999.0 4.5 60 -
2015-04-23 02:50:00 5.0  1.6  1000.0 4.5 60 0.1
2015-04-23 02:20:00 5.0  1.1  1001.0 5.4 60 -
2015-04-23 01:50:00 5.0  1.1  1002.0 5.4 60 -
2015-04-23 01:20:00 5.0  1.6  1003.0 4.5 60 -
2015-04-23 00:50:00 5.0  1.8  1004.0 4.0 60 -
2015-04-23 00:20:00 5.0  1.8  1005.0 4.0 56 -
Unit conversions: